Retour au catalogue

TOMORROW-S1

ActifMétéoSSO
NORAD 60479·PAYLOAD·🇺🇸 United States

Lancé Aug 16, 2024 depuis Vandenberg Space Force Base

Loading…

Prochains Passages (prochaines 24 heures)

TLE

FraisSource: Space-Track

Époque: Sep 13, 2026, 22:58 UTC

1 60479U 24149M   26256.95734806  .00006556  00000-0  20286-3 0  9992
2 60479  97.3698 337.1923 0001013 309.0135  51.1017 15.33821030115697

Suivez TOMORROW-S1 en temps réel avec AllMySat

Download on the App Store